Temp
61 61 60 59 59 59 60 59 57 57 58 59 59 58 58 58 57 56 56 56 56 55 55 54 54 53 53 52 52 52 52 52 52 51 51 51 52 52 52 52 52 52 53 53 53 54 54 54 54 54 53 53 53 53 53 53 53 54 55 55 55 55 55 54 54 54 54 54 55
60 60 58 56 56 57 58 57 56 56 57 58 58 58 58 57 56 56 55 55 55 55 54 54 53 53 53 52 52 52 52 52 52 51 51 51 51 51 51 51 51 52 52 52 53 54 54 54 54 53 53 53 53 53 53 52 53 53 54 53 53 54 54 54 54 54 54 54 55
60 59 58 58 58 58 57 57 56 57 57 57 57 57 57 56 56 55 55 55 55 54 54 53 53 52 52 52 53 53 53 52 52 52 52 52 51 51 51 51 51 50 50 51 52 53 53 54 53 53 52 53 53 53 53 53 53 53 53 52 53 53 53 54 54 54 54 54 54
58 58 58 58 58 57 57 57 56 56 56 56 56 56 56 56 55 55 54 54 54 54 53 53 52 52 52 52 52 52 52 51 52 52 52 51 51 51 51 51 51 51 50 51 51 52 52 53 53 53 53 53 53 53 53 53 53 53 53 53 53 53 53 53 53 54 54 54 54
57 57 57 58 57 57 57 57 56 56 56 55 55 55 55 54 54 54 53 53 53 53 53 52 51 51 51 51 51 51 51 51 50 51 52 51 51 51 51 51 51 51 50 50 51 51 51 52 53 53 53 53 52 52 53 53 53 53 53 53 53 53 53 53 53 53 53 53 53
56 56 56 57 56 56 56 56 56 55 55 54 54 54 54 53 53 53 53 52 52 52 52 50 49 49 50 51 51 51 51 51 51 51 51 51 51 51 51 50 50 50 50 50 50 50 51 52 52 52 52 51 51 51 52 53 53 53 52 52 53 53 52 52 52 52 52 51 51
55 55 55 55 55 55 55 55 54 54 54 54 54 53 53 53 53 52 52 52 52 51 50 48 49 49 50 51 51 51 51 51 51 51 51 51 51 51 50 50 49 49 50 50 50 50 51 51 51 51 49 49 50 50 51 52 52 52 52 51 52 52 51 51 52 52 51 50 49
54 54 53 53 53 53 53 53 53 53 53 53 53 53 52 52 52 52 52 52 51 50 49 49 49 50 51 51 50 50 50 51 51 51 51 51 51 50 50 50 49 49 49 49 50 50 51 51 51 51 50 49 48 48 48 49 50 50 51 51 51 51 51 50 51 51 50 49 47
52 52 52 52 52 52 52 52 53 53 53 53 52 52 52 52 51 51 51 51 51 50 49 49 49 50 50 50 49 49 49 49 50 50 51 50 50 49 49 49 49 48 48 49 50 50 50 51 51 50 50 49 47 46 46 46 47 48 49 50 50 50 51 51 50 50 49 48 46
51 51 51 51 51 51 51 52 52 52 52 52 52 52 51 49 50 51 51 51 50 50 50 49 49 49 49 49 48 48 48 49 49 49 49 49 48 48 49 49 48 48 48 49 50 50 50 50 49 49 48 48 46 45 44 44 45 45 47 48 48 48 49 50 50 49 48 47 45
50 50 50 51 51 51 51 52 51 51 51 51 51 51 50 49 50 51 51 50 50 49 49 49 49 48 48 48 48 48 48 48 48 48 48 48 48 48 48 48 48 48 48 49 49 49 49 49 47 46 46 47 45 44 44 43 43 43 44 45 45 46 46 48 49 49 48 47 45
49 49 50 50 50 50 51 51 51 50 50 50 49 50 50 50 51 50 49 49 49 49 49 49 48 48 48 48 48 48 48 48 48 48 48 49 49 49 49 48 48 48 48 48 49 48 47 46 46 45 45 46 46 45 44 43 43 43 43 43 44 44 44 45 46 47 47 47 45
49 49 49 49 49 49 50 50 49 49 49 49 48 49 50 50 50 49 49 49 49 49 49 48 48 48 48 48 48 48 48 48 48 48 49 49 49 49 49 48 48 48 48 48 48 48 47 46 45 45 45 45 46 45 44 44 43 43 43 43 42 42 42 43 44 45 45 45 44
48 48 48 48 48 48 48 48 48 48 48 48 48 49 49 49 49 49 49 49 49 48 48 48 48 48 48 48 48 48 48 48 48 48 49 49 49 49 49 48 48 48 48 48 48 47 46 45 45 45 45 45 45 45 45 45 44 43 43 42 42 42 42 42 42 43 43 43 43
47 47 47 47 47 46 46 47 47 48 48 48 48 48 48 48 48 48 48 48 48 47 47 47 48 48 48 48 48 48 48 49 49 48 48 48 48 48 48 48 48 48 48 47 47 47 46 45 45 45 45 45 45 45 45 45 44 43 43 42 42 41 41 42 42 41 41 41 41
47 47 46 46 45 45 45 46 47 47 48 48 48 48 47 48 47 47 47 47 47 47 47 47 47 47 47 47 48 48 48 48 48 48 48 48 48 48 48 48 48 48 47 47 47 47 46 46 46 46 45 45 45 45 45 44 44 43 43 42 42 42 42 41 41 41 40 40 40
46 46 45 45 44 44 45 45 46 47 47 47 47 47 47 47 47 46 45 46 47 47 47 46 47 47 47 47 47 48 48 48 48 48 48 48 48 48 48 48 48 48 47 47 47 47 46 46 46 46 46 45 46 45 44 44 43 43 43 43 43 42 42 41 41 41 40 40 40
45 45 45 44 44 44 44 45 45 46 46 46 46 46 47 47 46 46 45 45 46 46 46 46 46 46 46 46 47 47 48 48 48 48 48 48 48 48 48 48 48 48 48 47 47 47 46 46 46 46 46 45 45 45 44 44 44 44 43 43 43 42 42 41 41 41 40 40 40
44 44 44 43 43 43 43 43 44 45 45 46 46 46 46 46 46 45 45 45 45 45 45 45 46 46 46 46 47 47 47 47 47 48 48 48 48 48 48 48 48 48 48 47 47 47 47 46 46 46 45 45 45 45 45 44 44 44 44 44 43 43 42 41 41 41 40 40 40
43 42 42 43 43 43 43 43 43 44 45 45 45 45 45 45 45 45 44 44 45 45 45 44 45 45 46 46 46 46 46 47 47 47 47 48 48 48 48 48 47 47 47 47 47 47 47 47 47 46 46 46 45 45 45 45 44 44 44 44 44 43 43 42 41 41 41 41 41
42 42 42 43 43 42 42 43 43 44 44 44 44 44 44 44 44 44 43 43 44 44 43 44 44 44 45 45 46 46 46 47 46 46 47 47 47 47 47 47 47 47 47 47 47 47 46 46 47 47 46 46 45 45 45 45 45 45 45 44 44 44 43 43 42 41 41 41 41
42 42 42 42 42 41 41 42 43 43 43 43 43 43 43 43 43 43 43 43 43 43 43 44 44 44 44 45 45 45 45 46 46 46 46 47 47 47 47 47 47 47 46 46 46 46 46 46 46 46 46 46 45 45 44 45 45 45 45 45 44 43 43 42 42 41 41 41 41
43 42 42 42 41 40 40 41 42 42 42 42 42 42 42 42 42 42 42 42 42 42 43 44 44 44 45 45 45 45 44 44 45 45 46 46 46 47 47 47 46 46 45 46 46 46 45 45 45 46 46 46 45 44 44 45 45 45 45 45 43 42 42 41 41 41 41 41 41
43 41 40 40 40 40 39 40 40 40 41 41 41 41 42 41 41 41 41 41 41 42 42 43 44 44 44 44 44 44 44 44 44 44 45 45 46 46 46 46 46 46 46 46 46 45 44 45 45 45 45 45 45 45 45 45 45 45 45 45 43 42 41 41 40 40 40 40 40
42 40 39 39 39 39 38 38 39 39 40 40 41 41 41 40 40 40 40 40 40 41 42 42 43 43 44 44 44 44 44 44 44 44 44 45 45 46 46 46 47 47 46 44 40 38 39 41 43 44 45 45 45 46 46 45 45 45 44 44 43 43 42 41 40 40 40 40 40
40 39 38 37 38 37 37 37 38 39 39 40 40 39 39 40 39 38 38 38 39 40 41 42 42 42 42 43 43 44 44 44 44 44 44 44 45 45 46 47 46 46 45 40 37 36 36 36 38 40 43 46 46 46 46 45 45 45 44 44 44 43 43 43 42 41 40 40 40
39 38 37 37 37 37 36 36 37 38 38 39 38 38 38 38 38 37 36 36 38 39 40 40 41 40 40 43 43 43 43 44 44 44 44 44 44 45 46 47 46 45 42 37 36 35 35 36 36 37 40 45 45 45 45 45 45 44 44 44 44 44 44 44 44 43 42 41 41
38 37 37 37 36 36 36 36 36 36 37 37 37 37 37 37 37 36 35 36 37 38 39 40 40 41 41 43 42 42 43 44 44 44 44 44 45 45 46 47 46 43 39 36 35 35 35 35 35 36 38 41 44 45 44 45 44 44 45 45 45 45 44 45 45 44 44 43 42
37 37 37 36 36 36 36 35 35 35 35 36 36 36 36 36 36 35 35 36 36 37 39 40 41 41 42 42 42 43 43 44 44 44 45 44 45 46 46 47 45 41 37 34 35 35 35 35 35 35 35 37 42 44 45 44 44 44 45 45 45 45 45 44 44 44 44 43 43
37 36 36 36 36 36 35 34 34 34 34 34 34 35 35 35 35 35 35 35 36 38 40 41 41 41 42 42 42 43 43 44 44 44 44 44 44 45 45 45 44 41 37 34 34 34 34 34 34 34 34 35 39 42 44 44 44 44 44 44 44 44 44 43 43 43 43 43 43
36 36 36 36 36 35 34 34 34 34 34 33 33 34 34 34 34 35 35 36 38 39 40 41 41 41 41 43 43 43 43 44 44 44 44 43 43 44 45 45 43 40 37 34 34 34 34 34 33 33 34 34 38 41 43 43 44 44 44 44 43 43 43 42 42 42 42 42 42
36 35 35 35 34 34 34 34 34 33 33 33 33 33 34 34 35 36 37 38 39 40 40 41 41 41 42 42 42 43 43 43 43 43 43 44 44 44 44 44 42 39 36 34 34 34 33 33 33 33 33 34 37 40 42 42 43 43 43 42 42 42 42 41 42 41 41 41 41
35 35 34 34 33 33 33 33 33 33 33 33 33 33 34 34 36 37 37 38 39 39 40 40 40 40 41 42 42 42 42 42 42 42 43 43 44 44 44 43 41 38 35 33 33 33 33 33 32 32 33 33 37 40 41 42 42 42 42 42 41 41 41 41 41 41 40 40 41
35 34 34 33 33 33 33 33 33 33 33 33 33 34 34 35 35 36 37 38 39 39 40 40 40 41 41 42 42 42 41 41 42 42 43 44 44 44 43 42 40 37 34 33 33 33 32 32 32 32 32 33 37 40 42 42 41 41 41 41 40 40 40 39 39 39 39 39 40
34 34 33 33 33 33 32 32 32 32 32 33 33 34 34 35 36 36 37 38 38 39 40 41 41 42 42 42 42 42 41 40 41 42 42 43 44 43 42 42 39 36 33 33 33 32 32 32 32 32 33 34 39 41 42 42 41 41 40 40 39 39 38 38 38 38 39 39 39
34 33 33 33 32 32 32 32 32 32 32 33 33 34 34 35 36 37 38 38 39 39 40 41 41 42 42 42 42 41 40 40 40 41 41 42 42 42 42 41 39 36 33 33 32 32 32 31 31 32 33 36 40 41 41 41 40 40 40 39 39 38 38 37 38 38 38 38 37
33 33 32 32 32 32 32 32 32 32 32 33 33 34 34 35 36 37 38 38 39 40 40 41 41 41 41 41 41 40 41 41 41 40 40 40 41 42 42 41 39 36 33 32 32 32 31 31 31 32 34 39 40 41 40 40 40 40 39 39 39 38 38 38 38 37 37 36 35
33 33 32 32 31 31 31 32 31 31 32 33 34 34 35 36 36 37 38 38 39 40 40 41 41 41 41 41 40 40 41 41 40 40 39 40 40 41 41 41 39 37 34 32 32 32 31 31 31 32 35 40 40 41 40 40 39 39 39 39 39 38 38 39 39 38 36 33 32
32 32 32 31 31 31 31 31 31 31 32 33 34 35 36 37 37 38 39 38 40 41 41 41 41 41 41 40 40 40 40 40 40 39 39 39 40 40 40 41 39 37 35 32 32 31 31 31 31 32 34 38 40 40 40 40 39 39 39 39 39 38 38 39 39 38 36 33 30
32 32 32 31 31 31 31 31 31 32 33 33 34 34 36 37 38 39 39 39 41 41 41 41 41 41 40 39 39 39 39 39 39 39 38 39 39 38 38 40 39 37 35 32 32 31 31 31 31 31 34 38 40 40 40 39 39 38 38 38 38 38 38 38 38 38 37 35 32
32 32 32 32 32 31 31 31 32 32 33 34 34 34 36 37 38 39 39 40 41 41 41 41 41 40 39 38 39 38 38 38 39 38 38 37 37 37 38 39 38 37 36 34 32 31 31 31 31 31 33 37 39 40 40 39 38 38 37 38 38 38 37 37 38 38 37 37 36
MSLP
1020.37 1020.49 1020.69 1020.85 1020.97 1021.13 1021.29 1021.53 1021.77 1021.93 1022.05 1022.13 1022.29 1022.49 1022.65 1022.81 1022.93 1023.13 1023.29 1023.41 1023.49 1023.65 1023.77 1023.93 1024.13 1024.33 1024.49 1024.57 1024.61 1024.65 1024.65 1024.73 1024.81 1024.89 1024.93 1024.93 1024.93 1024.97 1025.01 1025.01 1024.97 1024.93 1024.85 1024.81 1024.77 1024.69 1024.65 1024.65 1024.65 1024.69 1024.73 1024.77 1024.77 1024.77 1024.81 1024.85 1024.73 1024.57 1024.49 1024.49 1024.45 1024.45 1024.41 1024.37 1024.37 1024.37 1024.37 1024.37 1024.33
1020.37 1020.57 1020.81 1021.01 1021.17 1021.29 1021.45 1021.73 1021.93 1022.09 1022.17 1022.25 1022.41 1022.57 1022.73 1022.85 1023.05 1023.21 1023.37 1023.49 1023.65 1023.77 1023.93 1024.05 1024.21 1024.37 1024.49 1024.65 1024.65 1024.65 1024.65 1024.69 1024.81 1024.89 1024.93 1024.97 1025.09 1025.13 1025.17 1025.13 1025.13 1025.09 1025.01 1024.93 1024.81 1024.73 1024.69 1024.69 1024.65 1024.69 1024.73 1024.77 1024.73 1024.73 1024.81 1024.89 1024.81 1024.73 1024.65 1024.69 1024.69 1024.69 1024.65 1024.53 1024.53 1024.53 1024.49 1024.45 1024.41
1020.37 1020.65 1020.85 1021.05 1021.17 1021.33 1021.53 1021.77 1021.93 1022.05 1022.17 1022.37 1022.53 1022.69 1022.85 1022.97 1023.13 1023.33 1023.49 1023.61 1023.73 1023.85 1023.97 1024.09 1024.29 1024.41 1024.53 1024.65 1024.65 1024.69 1024.65 1024.69 1024.73 1024.81 1024.85 1024.93 1025.09 1025.17 1025.21 1025.21 1025.25 1025.25 1025.21 1025.05 1024.93 1024.85 1024.81 1024.77 1024.81 1024.81 1024.77 1024.73 1024.73 1024.77 1024.81 1024.85 1024.81 1024.81 1024.81 1024.81 1024.89 1024.85 1024.77 1024.69 1024.65 1024.65 1024.65 1024.57 1024.53
1020.45 1020.65 1020.81 1020.97 1021.17 1021.37 1021.53 1021.73 1021.89 1022.05 1022.25 1022.45 1022.65 1022.81 1022.97 1023.13 1023.29 1023.45 1023.61 1023.69 1023.85 1023.93 1024.05 1024.17 1024.37 1024.49 1024.61 1024.69 1024.69 1024.73 1024.77 1024.77 1024.77 1024.77 1024.81 1024.93 1025.05 1025.13 1025.21 1025.25 1025.21 1025.25 1025.25 1025.17 1025.09 1025.01 1024.93 1024.85 1024.85 1024.81 1024.81 1024.77 1024.77 1024.77 1024.81 1024.85 1024.85 1024.85 1024.89 1024.93 1024.97 1024.93 1024.89 1024.85 1024.85 1024.81 1024.81 1024.77 1024.73
1020.53 1020.69 1020.81 1021.01 1021.17 1021.41 1021.61 1021.77 1021.93 1022.09 1022.33 1022.57 1022.77 1022.93 1023.09 1023.29 1023.45 1023.57 1023.69 1023.81 1023.93 1023.97 1024.09 1024.25 1024.41 1024.57 1024.65 1024.69 1024.73 1024.81 1024.81 1024.89 1024.89 1024.85 1024.85 1024.93 1025.05 1025.13 1025.21 1025.25 1025.25 1025.29 1025.33 1025.33 1025.21 1025.13 1025.05 1024.97 1024.89 1024.85 1024.85 1024.85 1024.93 1024.93 1024.89 1024.93 1024.93 1024.93 1024.93 1025.05 1025.05 1025.05 1025.01 1025.01 1025.05 1025.05 1025.01 1024.93 1024.93
1020.53 1020.77 1020.93 1021.09 1021.29 1021.49 1021.73 1021.93 1022.09 1022.21 1022.45 1022.65 1022.81 1022.97 1023.17 1023.37 1023.49 1023.65 1023.73 1023.81 1023.89 1024.05 1024.21 1024.37 1024.49 1024.65 1024.69 1024.65 1024.69 1024.77 1024.81 1024.89 1024.93 1024.89 1024.89 1024.97 1025.05 1025.09 1025.21 1025.29 1025.37 1025.41 1025.41 1025.41 1025.37 1025.25 1025.13 1025.01 1024.93 1024.93 1025.01 1025.09 1025.09 1025.09 1025.09 1025.01 1024.93 1024.93 1025.01 1025.09 1025.09 1025.17 1025.21 1025.21 1025.21 1025.21 1025.21 1025.21 1025.13
1020.57 1020.81 1021.01 1021.21 1021.45 1021.65 1021.85 1022.09 1022.25 1022.41 1022.61 1022.77 1022.89 1023.05 1023.21 1023.37 1023.53 1023.65 1023.77 1023.89 1023.97 1024.13 1024.33 1024.49 1024.57 1024.61 1024.57 1024.61 1024.65 1024.65 1024.73 1024.81 1024.85 1024.89 1024.93 1024.93 1025.01 1025.09 1025.21 1025.29 1025.41 1025.49 1025.49 1025.49 1025.37 1025.29 1025.21 1025.09 1025.05 1025.09 1025.21 1025.25 1025.29 1025.29 1025.25 1025.13 1025.05 1025.05 1025.09 1025.09 1025.21 1025.33 1025.37 1025.37 1025.37 1025.33 1025.33 1025.37 1025.33
1020.73 1020.93 1021.09 1021.37 1021.61 1021.77 1021.97 1022.21 1022.37 1022.49 1022.65 1022.81 1022.93 1023.09 1023.29 1023.49 1023.65 1023.77 1023.85 1023.93 1024.05 1024.17 1024.37 1024.45 1024.49 1024.49 1024.49 1024.53 1024.57 1024.65 1024.69 1024.77 1024.81 1024.85 1024.89 1024.93 1025.01 1025.09 1025.21 1025.37 1025.45 1025.53 1025.57 1025.49 1025.37 1025.29 1025.21 1025.13 1025.09 1025.09 1025.21 1025.37 1025.41 1025.49 1025.53 1025.45 1025.29 1025.21 1025.17 1025.21 1025.29 1025.45 1025.49 1025.53 1025.49 1025.49 1025.49 1025.53 1025.57
1020.81 1021.01 1021.21 1021.45 1021.65 1021.89 1022.09 1022.33 1022.45 1022.53 1022.65 1022.85 1023.09 1023.25 1023.41 1023.61 1023.77 1023.85 1023.93 1024.01 1024.13 1024.25 1024.37 1024.37 1024.45 1024.49 1024.53 1024.57 1024.65 1024.65 1024.73 1024.81 1024.81 1024.85 1024.89 1024.93 1025.05 1025.13 1025.21 1025.37 1025.49 1025.57 1025.61 1025.57 1025.49 1025.37 1025.25 1025.13 1025.13 1025.17 1025.29 1025.41 1025.57 1025.69 1025.77 1025.73 1025.57 1025.41 1025.37 1025.33 1025.41 1025.49 1025.53 1025.57 1025.65 1025.65 1025.65 1025.65 1025.77
1020.77 1020.97 1021.17 1021.37 1021.65 1021.93 1022.17 1022.37 1022.53 1022.65 1022.81 1022.93 1023.17 1023.37 1023.57 1023.77 1023.93 1023.97 1024.01 1024.09 1024.21 1024.29 1024.33 1024.37 1024.45 1024.49 1024.53 1024.61 1024.65 1024.69 1024.77 1024.81 1024.85 1024.93 1024.97 1025.05 1025.13 1025.21 1025.29 1025.37 1025.49 1025.61 1025.61 1025.61 1025.53 1025.45 1025.33 1025.25 1025.29 1025.37 1025.45 1025.53 1025.69 1025.81 1025.93 1025.89 1025.77 1025.65 1025.57 1025.53 1025.65 1025.69 1025.65 1025.65 1025.69 1025.69 1025.77 1025.81 1025.93
1020.69 1020.93 1021.13 1021.33 1021.61 1021.93 1022.13 1022.33 1022.49 1022.69 1022.89 1023.05 1023.29 1023.49 1023.69 1023.89 1023.97 1024.05 1024.13 1024.25 1024.25 1024.25 1024.29 1024.37 1024.45 1024.49 1024.53 1024.61 1024.65 1024.69 1024.77 1024.81 1024.89 1024.97 1025.09 1025.13 1025.21 1025.25 1025.37 1025.41 1025.53 1025.61 1025.65 1025.65 1025.61 1025.53 1025.49 1025.45 1025.49 1025.49 1025.57 1025.65 1025.81 1025.93 1025.93 1025.97 1025.93 1025.89 1025.93 1025.93 1025.97 1025.93 1025.89 1025.81 1025.77 1025.77 1025.81 1025.89 1025.97
1020.69 1020.93 1021.13 1021.37 1021.65 1021.89 1022.09 1022.25 1022.49 1022.69 1022.93 1023.09 1023.37 1023.61 1023.77 1023.89 1023.97 1024.13 1024.25 1024.33 1024.21 1024.21 1024.33 1024.45 1024.49 1024.49 1024.53 1024.61 1024.65 1024.69 1024.77 1024.81 1024.89 1024.93 1025.09 1025.17 1025.21 1025.29 1025.37 1025.45 1025.57 1025.65 1025.73 1025.73 1025.69 1025.69 1025.65 1025.65 1025.61 1025.61 1025.65 1025.73 1025.77 1025.89 1025.97 1026.01 1026.01 1026.01 1026.05 1026.09 1026.09 1026.13 1026.17 1026.09 1026.05 1025.97 1025.93 1025.97 1026.09
1020.77 1020.97 1021.21 1021.41 1021.65 1021.85 1022.05 1022.25 1022.49 1022.69 1022.93 1023.13 1023.41 1023.61 1023.73 1023.89 1024.05 1024.21 1024.29 1024.25 1024.21 1024.25 1024.37 1024.49 1024.53 1024.53 1024.57 1024.57 1024.65 1024.65 1024.73 1024.81 1024.89 1024.93 1025.05 1025.13 1025.21 1025.29 1025.37 1025.49 1025.61 1025.73 1025.77 1025.77 1025.77 1025.77 1025.77 1025.73 1025.69 1025.65 1025.65 1025.73 1025.77 1025.85 1025.93 1025.97 1026.01 1026.01 1026.01 1026.09 1026.13 1026.21 1026.25 1026.29 1026.29 1026.25 1026.21 1026.17 1026.21
1020.85 1021.05 1021.25 1021.49 1021.69 1021.89 1022.09 1022.29 1022.49 1022.69 1022.89 1023.09 1023.37 1023.57 1023.73 1023.93 1024.09 1024.21 1024.21 1024.25 1024.25 1024.33 1024.41 1024.53 1024.53 1024.53 1024.53 1024.57 1024.57 1024.61 1024.65 1024.73 1024.85 1024.93 1025.05 1025.13 1025.21 1025.29 1025.37 1025.49 1025.65 1025.77 1025.81 1025.81 1025.85 1025.85 1025.81 1025.77 1025.77 1025.77 1025.77 1025.77 1025.81 1025.85 1025.89 1025.93 1025.97 1026.01 1026.05 1026.09 1026.17 1026.25 1026.33 1026.37 1026.41 1026.45 1026.45 1026.37 1026.37
1020.93 1021.17 1021.37 1021.61 1021.77 1021.97 1022.17 1022.37 1022.53 1022.69 1022.85 1023.05 1023.29 1023.49 1023.73 1023.93 1024.09 1024.21 1024.21 1024.25 1024.37 1024.37 1024.41 1024.49 1024.49 1024.53 1024.57 1024.61 1024.61 1024.61 1024.65 1024.69 1024.81 1024.93 1025.01 1025.13 1025.21 1025.29 1025.37 1025.49 1025.65 1025.81 1025.89 1025.93 1025.93 1025.93 1025.89 1025.89 1025.85 1025.89 1025.93 1025.93 1025.89 1025.89 1025.89 1025.93 1025.97 1026.05 1026.09 1026.17 1026.25 1026.29 1026.37 1026.41 1026.49 1026.53 1026.57 1026.53 1026.49
1020.97 1021.21 1021.49 1021.73 1021.93 1022.09 1022.25 1022.37 1022.57 1022.73 1022.85 1023.01 1023.21 1023.49 1023.69 1023.89 1024.09 1024.17 1024.21 1024.29 1024.37 1024.37 1024.37 1024.41 1024.45 1024.49 1024.57 1024.65 1024.65 1024.61 1024.65 1024.69 1024.77 1024.89 1024.97 1025.09 1025.21 1025.29 1025.37 1025.53 1025.69 1025.85 1025.93 1025.97 1025.93 1025.89 1025.89 1025.93 1025.93 1025.93 1025.93 1025.93 1025.93 1025.93 1025.93 1026.01 1026.09 1026.13 1026.17 1026.21 1026.29 1026.33 1026.37 1026.45 1026.53 1026.61 1026.65 1026.65 1026.61
1020.97 1021.25 1021.53 1021.77 1021.97 1022.17 1022.33 1022.49 1022.61 1022.73 1022.85 1023.01 1023.25 1023.45 1023.65 1023.77 1023.93 1024.13 1024.25 1024.33 1024.33 1024.33 1024.37 1024.41 1024.45 1024.49 1024.53 1024.61 1024.65 1024.65 1024.65 1024.69 1024.81 1024.85 1024.93 1025.05 1025.13 1025.25 1025.37 1025.53 1025.73 1025.93 1026.01 1026.01 1025.93 1025.89 1025.89 1025.93 1026.01 1026.01 1025.97 1025.93 1025.93 1026.01 1026.05 1026.09 1026.13 1026.17 1026.21 1026.21 1026.29 1026.37 1026.45 1026.53 1026.61 1026.65 1026.65 1026.69 1026.69
1020.97 1021.21 1021.49 1021.81 1022.01 1022.21 1022.37 1022.53 1022.69 1022.81 1022.93 1023.09 1023.29 1023.45 1023.57 1023.69 1023.89 1024.09 1024.21 1024.29 1024.29 1024.33 1024.37 1024.41 1024.49 1024.49 1024.49 1024.53 1024.57 1024.61 1024.65 1024.69 1024.81 1024.85 1024.93 1025.01 1025.09 1025.25 1025.41 1025.61 1025.81 1025.93 1026.01 1026.01 1025.93 1025.89 1025.89 1025.97 1026.09 1026.09 1026.09 1026.09 1026.05 1026.09 1026.09 1026.09 1026.09 1026.13 1026.17 1026.21 1026.33 1026.41 1026.49 1026.57 1026.65 1026.69 1026.73 1026.69 1026.69
1020.97 1021.21 1021.49 1021.77 1022.01 1022.21 1022.41 1022.61 1022.77 1022.89 1023.01 1023.17 1023.33 1023.41 1023.49 1023.65 1023.85 1024.01 1024.13 1024.21 1024.29 1024.37 1024.41 1024.49 1024.49 1024.49 1024.49 1024.49 1024.53 1024.57 1024.65 1024.73 1024.81 1024.85 1024.93 1025.01 1025.13 1025.29 1025.49 1025.69 1025.93 1026.05 1026.09 1026.05 1025.93 1025.89 1025.89 1025.93 1026.05 1026.09 1026.13 1026.17 1026.13 1026.09 1026.09 1026.13 1026.13 1026.17 1026.17 1026.21 1026.25 1026.37 1026.49 1026.61 1026.69 1026.77 1026.81 1026.77 1026.73
1020.97 1021.21 1021.45 1021.69 1021.93 1022.21 1022.45 1022.65 1022.85 1023.01 1023.13 1023.21 1023.37 1023.45 1023.49 1023.65 1023.81 1023.97 1024.09 1024.21 1024.37 1024.45 1024.49 1024.53 1024.53 1024.49 1024.49 1024.49 1024.49 1024.57 1024.65 1024.73 1024.81 1024.89 1024.93 1025.05 1025.17 1025.33 1025.53 1025.77 1025.97 1026.09 1026.09 1026.09 1025.97 1025.93 1025.97 1026.01 1026.09 1026.09 1026.13 1026.13 1026.09 1026.09 1026.05 1026.09 1026.09 1026.09 1026.09 1026.13 1026.21 1026.29 1026.45 1026.61 1026.73 1026.81 1026.81 1026.77 1026.73
1020.97 1021.17 1021.37 1021.61 1021.89 1022.17 1022.45 1022.69 1022.89 1023.05 1023.21 1023.33 1023.41 1023.49 1023.57 1023.69 1023.81 1023.97 1024.13 1024.25 1024.41 1024.49 1024.57 1024.57 1024.57 1024.53 1024.49 1024.49 1024.49 1024.57 1024.65 1024.77 1024.89 1024.93 1024.97 1025.09 1025.21 1025.41 1025.65 1025.81 1026.01 1026.09 1026.09 1026.09 1026.05 1026.05 1026.09 1026.09 1026.13 1026.13 1026.13 1026.13 1026.09 1026.09 1026.05 1026.01 1026.01 1026.01 1026.05 1026.13 1026.21 1026.29 1026.37 1026.53 1026.69 1026.81 1026.81 1026.73 1026.73
1020.97 1021.13 1021.37 1021.57 1021.89 1022.17 1022.41 1022.65 1022.89 1023.05 1023.21 1023.37 1023.49 1023.61 1023.65 1023.77 1023.93 1024.09 1024.21 1024.37 1024.49 1024.57 1024.61 1024.61 1024.61 1024.57 1024.53 1024.49 1024.49 1024.57 1024.65 1024.81 1024.89 1024.93 1024.97 1025.09 1025.25 1025.49 1025.69 1025.89 1026.01 1026.09 1026.13 1026.13 1026.09 1026.13 1026.17 1026.21 1026.21 1026.21 1026.21 1026.21 1026.17 1026.13 1026.09 1026.05 1025.97 1025.93 1025.93 1026.05 1026.21 1026.33 1026.41 1026.53 1026.65 1026.77 1026.81 1026.81 1026.77
1020.93 1021.17 1021.37 1021.57 1021.85 1022.13 1022.41 1022.65 1022.85 1023.01 1023.13 1023.29 1023.49 1023.65 1023.73 1023.81 1024.01 1024.21 1024.37 1024.49 1024.61 1024.65 1024.61 1024.57 1024.57 1024.57 1024.57 1024.53 1024.53 1024.61 1024.65 1024.77 1024.81 1024.93 1025.01 1025.13 1025.33 1025.53 1025.73 1025.93 1026.05 1026.13 1026.13 1026.13 1026.13 1026.21 1026.25 1026.33 1026.37 1026.37 1026.29 1026.25 1026.25 1026.21 1026.13 1026.09 1025.97 1025.93 1025.93 1025.97 1026.21 1026.37 1026.49 1026.61 1026.69 1026.81 1026.85 1026.81 1026.85
1020.93 1021.13 1021.37 1021.57 1021.81 1022.09 1022.37 1022.61 1022.73 1022.89 1023.09 1023.29 1023.49 1023.65 1023.77 1023.89 1024.05 1024.25 1024.41 1024.49 1024.65 1024.65 1024.65 1024.65 1024.61 1024.61 1024.65 1024.65 1024.61 1024.61 1024.65 1024.65 1024.77 1024.89 1025.05 1025.21 1025.37 1025.61 1025.77 1025.89 1026.01 1026.05 1026.01 1026.05 1026.13 1026.25 1026.37 1026.37 1026.41 1026.45 1026.41 1026.33 1026.29 1026.21 1026.09 1026.01 1025.97 1025.93 1025.93 1025.97 1026.13 1026.33 1026.45 1026.61 1026.73 1026.81 1026.85 1026.85 1026.93
1020.93 1021.09 1021.29 1021.49 1021.77 1022.05 1022.25 1022.45 1022.61 1022.81 1023.05 1023.29 1023.49 1023.65 1023.73 1023.89 1024.09 1024.29 1024.45 1024.57 1024.69 1024.73 1024.73 1024.73 1024.77 1024.77 1024.77 1024.77 1024.69 1024.65 1024.65 1024.65 1024.73 1024.85 1025.05 1025.25 1025.45 1025.61 1025.73 1025.77 1025.85 1025.89 1025.97 1026.21 1026.61 1026.77 1026.73 1026.65 1026.49 1026.45 1026.41 1026.37 1026.25 1026.17 1026.09 1026.01 1026.01 1025.97 1025.97 1026.01 1026.09 1026.21 1026.33 1026.49 1026.65 1026.81 1026.89 1026.93 1026.97
1020.89 1021.09 1021.21 1021.37 1021.65 1021.81 1022.01 1022.21 1022.45 1022.77 1023.09 1023.37 1023.53 1023.65 1023.73 1023.85 1024.09 1024.33 1024.49 1024.61 1024.73 1024.77 1024.81 1024.81 1024.85 1024.89 1024.89 1024.81 1024.73 1024.65 1024.65 1024.69 1024.73 1024.85 1025.05 1025.21 1025.37 1025.49 1025.61 1025.65 1025.77 1025.89 1026.17 1026.61 1026.93 1027.05 1027.05 1027.05 1026.93 1026.69 1026.49 1026.37 1026.21 1026.13 1026.09 1026.09 1026.05 1026.05 1026.05 1026.05 1026.09 1026.09 1026.13 1026.21 1026.37 1026.57 1026.77 1026.93 1026.97
1020.81 1020.97 1021.13 1021.29 1021.37 1021.49 1021.65 1021.93 1022.29 1022.73 1023.13 1023.45 1023.61 1023.65 1023.69 1023.81 1024.09 1024.33 1024.53 1024.69 1024.77 1024.81 1024.89 1024.93 1024.93 1024.97 1024.97 1024.85 1024.81 1024.69 1024.65 1024.65 1024.77 1024.93 1025.05 1025.17 1025.33 1025.41 1025.49 1025.53 1025.69 1025.93 1026.37 1026.89 1027.09 1027.17 1027.21 1027.21 1027.17 1027.01 1026.69 1026.37 1026.29 1026.21 1026.09 1026.09 1026.09 1026.09 1026.05 1026.05 1025.97 1025.97 1026.01 1026.01 1026.09 1026.25 1026.49 1026.69 1026.81
1020.57 1020.81 1021.01 1021.13 1021.21 1021.21 1021.29 1021.61 1022.09 1022.57 1023.05 1023.41 1023.65 1023.73 1023.73 1023.81 1024.01 1024.25 1024.49 1024.65 1024.81 1024.89 1024.93 1024.97 1024.97 1025.01 1024.97 1024.89 1024.81 1024.77 1024.69 1024.69 1024.77 1024.93 1025.05 1025.17 1025.21 1025.29 1025.33 1025.45 1025.69 1026.13 1026.65 1027.09 1027.21 1027.29 1027.37 1027.33 1027.29 1027.21 1026.97 1026.69 1026.45 1026.33 1026.21 1026.13 1026.13 1026.09 1026.01 1025.97 1025.93 1025.97 1026.01 1026.01 1026.09 1026.21 1026.33 1026.45 1026.61
1020.33 1020.65 1020.89 1021.01 1021.01 1021.01 1021.17 1021.45 1021.89 1022.37 1022.85 1023.33 1023.65 1023.77 1023.77 1023.85 1023.97 1024.21 1024.41 1024.61 1024.73 1024.85 1024.89 1024.89 1024.93 1024.89 1024.81 1024.81 1024.81 1024.81 1024.77 1024.77 1024.81 1024.93 1025.01 1025.13 1025.21 1025.21 1025.29 1025.49 1025.81 1026.37 1026.93 1027.21 1027.33 1027.37 1027.45 1027.49 1027.45 1027.37 1027.25 1027.05 1026.61 1026.41 1026.37 1026.25 1026.17 1026.09 1026.01 1026.01 1026.01 1026.01 1026.05 1026.13 1026.21 1026.25 1026.37 1026.45 1026.53
1020.17 1020.49 1020.77 1020.89 1020.93 1021.05 1021.21 1021.45 1021.77 1022.21 1022.69 1023.21 1023.53 1023.69 1023.77 1023.81 1023.89 1024.05 1024.25 1024.49 1024.65 1024.77 1024.77 1024.77 1024.77 1024.73 1024.65 1024.69 1024.77 1024.81 1024.81 1024.81 1024.85 1024.93 1024.97 1025.09 1025.13 1025.21 1025.37 1025.61 1025.97 1026.49 1027.01 1027.33 1027.37 1027.49 1027.53 1027.57 1027.57 1027.49 1027.41 1027.21 1026.85 1026.57 1026.45 1026.37 1026.21 1026.13 1026.09 1026.09 1026.09 1026.17 1026.21 1026.29 1026.37 1026.45 1026.49 1026.49 1026.53
1020.09 1020.37 1020.57 1020.73 1020.93 1021.13 1021.37 1021.61 1021.89 1022.21 1022.65 1023.05 1023.37 1023.53 1023.65 1023.73 1023.77 1023.89 1024.09 1024.33 1024.49 1024.61 1024.65 1024.65 1024.65 1024.61 1024.61 1024.65 1024.69 1024.73 1024.77 1024.81 1024.85 1024.93 1025.01 1025.09 1025.21 1025.25 1025.41 1025.65 1026.09 1026.57 1027.05 1027.37 1027.45 1027.53 1027.61 1027.65 1027.65 1027.61 1027.49 1027.37 1027.05 1026.73 1026.53 1026.45 1026.33 1026.21 1026.21 1026.21 1026.29 1026.37 1026.41 1026.45 1026.49 1026.57 1026.61 1026.65 1026.61
1020.05 1020.25 1020.49 1020.65 1020.93 1021.21 1021.49 1021.77 1022.01 1022.29 1022.61 1022.89 1023.17 1023.37 1023.49 1023.61 1023.65 1023.77 1023.97 1024.21 1024.37 1024.45 1024.49 1024.53 1024.53 1024.53 1024.53 1024.57 1024.69 1024.73 1024.73 1024.81 1024.85 1024.93 1025.01 1025.09 1025.21 1025.29 1025.49 1025.77 1026.17 1026.61 1027.05 1027.37 1027.49 1027.57 1027.65 1027.69 1027.69 1027.65 1027.61 1027.49 1027.17 1026.85 1026.69 1026.57 1026.45 1026.37 1026.37 1026.45 1026.53 1026.57 1026.61 1026.61 1026.65 1026.69 1026.77 1026.77 1026.77
1020.09 1020.21 1020.37 1020.57 1020.85 1021.21 1021.53 1021.81 1022.09 1022.37 1022.57 1022.81 1023.05 1023.21 1023.37 1023.49 1023.53 1023.69 1023.93 1024.13 1024.25 1024.33 1024.37 1024.41 1024.41 1024.41 1024.45 1024.49 1024.65 1024.73 1024.77 1024.85 1024.89 1024.97 1025.09 1025.13 1025.21 1025.37 1025.61 1025.93 1026.25 1026.73 1027.13 1027.41 1027.49 1027.61 1027.69 1027.73 1027.73 1027.69 1027.65 1027.53 1027.21 1026.89 1026.73 1026.65 1026.61 1026.49 1026.49 1026.61 1026.69 1026.77 1026.81 1026.81 1026.81 1026.85 1026.93 1026.93 1026.93
1020.05 1020.21 1020.37 1020.53 1020.81 1021.17 1021.53 1021.85 1022.09 1022.33 1022.49 1022.69 1022.93 1023.09 1023.25 1023.37 1023.49 1023.65 1023.85 1024.05 1024.17 1024.25 1024.33 1024.37 1024.37 1024.37 1024.41 1024.49 1024.57 1024.65 1024.81 1024.89 1024.93 1025.05 1025.09 1025.17 1025.25 1025.41 1025.65 1025.97 1026.41 1026.89 1027.25 1027.45 1027.57 1027.65 1027.77 1027.77 1027.77 1027.77 1027.65 1027.49 1027.13 1026.81 1026.69 1026.65 1026.65 1026.61 1026.61 1026.65 1026.81 1026.89 1026.97 1027.05 1027.09 1027.09 1027.13 1027.13 1027.09
1019.93 1020.09 1020.29 1020.53 1020.81 1021.13 1021.49 1021.81 1022.09 1022.33 1022.49 1022.65 1022.81 1023.01 1023.17 1023.25 1023.37 1023.57 1023.77 1023.93 1024.09 1024.21 1024.25 1024.33 1024.37 1024.37 1024.41 1024.49 1024.57 1024.69 1024.85 1024.97 1025.05 1025.09 1025.17 1025.21 1025.33 1025.49 1025.73 1026.05 1026.49 1026.97 1027.37 1027.49 1027.65 1027.73 1027.77 1027.81 1027.81 1027.77 1027.65 1027.37 1027.01 1026.77 1026.65 1026.65 1026.61 1026.65 1026.69 1026.81 1026.93 1027.05 1027.13 1027.21 1027.21 1027.21 1027.29 1027.29 1027.29
1019.85 1020.05 1020.21 1020.49 1020.77 1021.09 1021.45 1021.77 1022.05 1022.25 1022.45 1022.57 1022.73 1022.93 1023.05 1023.17 1023.33 1023.49 1023.73 1023.93 1024.09 1024.13 1024.21 1024.25 1024.33 1024.37 1024.41 1024.49 1024.65 1024.81 1024.89 1025.01 1025.09 1025.17 1025.25 1025.33 1025.41 1025.53 1025.77 1026.09 1026.49 1027.01 1027.37 1027.49 1027.65 1027.77 1027.81 1027.81 1027.77 1027.73 1027.57 1027.21 1026.93 1026.77 1026.73 1026.69 1026.69 1026.73 1026.77 1026.81 1026.93 1027.05 1027.17 1027.25 1027.33 1027.37 1027.41 1027.49 1027.53
1019.77 1019.97 1020.17 1020.37 1020.69 1021.05 1021.37 1021.69 1021.93 1022.21 1022.37 1022.49 1022.61 1022.77 1022.93 1023.09 1023.29 1023.49 1023.65 1023.81 1023.93 1024.01 1024.09 1024.17 1024.21 1024.33 1024.37 1024.49 1024.65 1024.81 1024.93 1025.05 1025.13 1025.25 1025.37 1025.49 1025.53 1025.61 1025.77 1026.09 1026.49 1026.97 1027.37 1027.53 1027.69 1027.77 1027.81 1027.81 1027.77 1027.65 1027.41 1027.05 1026.85 1026.77 1026.77 1026.77 1026.77 1026.77 1026.81 1026.85 1026.93 1027.05 1027.17 1027.29 1027.37 1027.45 1027.61 1027.77 1027.89
1019.69 1019.93 1020.13 1020.37 1020.65 1020.97 1021.33 1021.65 1021.93 1022.13 1022.33 1022.45 1022.53 1022.65 1022.81 1022.93 1023.17 1023.37 1023.53 1023.69 1023.77 1023.85 1023.93 1024.09 1024.17 1024.29 1024.41 1024.53 1024.65 1024.81 1024.97 1025.09 1025.21 1025.37 1025.49 1025.57 1025.61 1025.65 1025.77 1026.09 1026.45 1026.89 1027.29 1027.53 1027.69 1027.77 1027.77 1027.77 1027.73 1027.61 1027.33 1026.93 1026.81 1026.73 1026.73 1026.73 1026.73 1026.77 1026.81 1026.85 1026.93 1027.05 1027.13 1027.21 1027.29 1027.45 1027.69 1028.01 1028.21
1019.65 1019.89 1020.09 1020.33 1020.61 1020.93 1021.33 1021.65 1021.89 1022.13 1022.33 1022.41 1022.49 1022.57 1022.65 1022.81 1022.97 1023.21 1023.41 1023.61 1023.65 1023.73 1023.89 1024.05 1024.17 1024.33 1024.49 1024.65 1024.73 1024.89 1025.01 1025.09 1025.29 1025.45 1025.53 1025.61 1025.65 1025.73 1025.81 1026.05 1026.41 1026.81 1027.21 1027.49 1027.65 1027.77 1027.77 1027.77 1027.73 1027.65 1027.37 1026.93 1026.81 1026.73 1026.73 1026.69 1026.69 1026.73 1026.77 1026.81 1026.89 1026.97 1027.09 1027.17 1027.21 1027.37 1027.65 1028.09 1028.41
1019.61 1019.85 1020.09 1020.33 1020.61 1020.93 1021.25 1021.61 1021.89 1022.13 1022.33 1022.45 1022.49 1022.53 1022.61 1022.69 1022.85 1023.09 1023.33 1023.49 1023.57 1023.69 1023.85 1024.05 1024.21 1024.37 1024.57 1024.73 1024.81 1024.93 1025.05 1025.21 1025.37 1025.49 1025.61 1025.69 1025.81 1025.93 1026.01 1026.09 1026.37 1026.77 1027.17 1027.49 1027.65 1027.73 1027.77 1027.81 1027.77 1027.65 1027.41 1026.93 1026.81 1026.77 1026.73 1026.69 1026.69 1026.69 1026.73 1026.81 1026.89 1026.93 1027.05 1027.13 1027.21 1027.29 1027.49 1027.77 1028.17
1019.57 1019.81 1020.05 1020.29 1020.53 1020.81 1021.13 1021.49 1021.81 1022.09 1022.29 1022.37 1022.49 1022.53 1022.61 1022.69 1022.85 1023.05 1023.21 1023.37 1023.49 1023.65 1023.81 1024.05 1024.21 1024.45 1024.65 1024.81 1024.89 1024.93 1025.09 1025.21 1025.37 1025.57 1025.73 1025.89 1026.01 1026.13 1026.21 1026.21 1026.41 1026.73 1027.09 1027.41 1027.61 1027.69 1027.77 1027.81 1027.77 1027.69 1027.45 1026.97 1026.81 1026.73 1026.69 1026.65 1026.65 1026.69 1026.69 1026.77 1026.85 1026.93 1027.01 1027.09 1027.21 1027.29 1027.41 1027.49 1027.69
Wind_Speed
7 6 5 5 5 4 4 4 4 3 4 4 4 4 4 4 4 3 3 3 3 3 3 3 3 4 4 4 4 4 4 4 4 4 4 4 4 4 3 3 3 2 2 2 2 2 3 3 3 3 2 2 2 3 3 2 2 2 3 3 3 4 4 4 4 4 4 4 3
8 7 6 5 5 4 4 4 4 4 4 4 4 4 4 4 4 4 4 3 3 3 3 3 4 4 5 5 5 5 5 5 5 5 4 4 4 3 3 3 3 2 2 2 2 2 2 3 3 2 2 2 2 2 3 2 2 3 4 4 3 3 3 3 4 4 4 4 3
8 8 7 7 6 5 5 4 5 5 5 4 4 4 4 4 4 4 4 4 4 4 4 4 4 5 5 5 5 4 4 5 5 5 4 4 4 4 3 3 3 3 2 2 2 2 2 3 2 2 2 2 2 2 2 2 2 3 4 4 3 2 2 2 3 3 3 3 3
8 8 8 8 8 7 6 5 6 6 6 5 5 4 4 4 3 4 4 4 5 4 4 4 5 5 5 5 5 4 4 4 5 5 5 4 4 4 4 3 3 3 2 2 2 2 2 3 2 2 2 3 3 3 2 2 2 3 3 3 2 2 2 2 3 3 3 3 3
8 8 7 7 8 7 6 6 7 7 6 5 4 4 4 4 4 4 4 4 4 4 5 6 5 5 5 5 5 5 5 5 4 4 5 5 5 4 4 4 3 3 3 2 2 2 2 2 2 2 3 3 3 3 3 2 3 3 3 2 2 2 3 3 3 3 3 3 3
8 8 7 7 8 7 6 6 7 7 6 5 5 5 5 4 4 4 5 5 5 6 6 6 5 5 5 6 6 6 6 5 5 5 5 5 5 5 4 4 4 3 3 3 2 2 2 2 2 3 3 3 4 3 3 3 3 3 3 3 3 3 3 3 3 3 3 4 4
9 8 8 8 8 7 6 6 7 6 6 5 6 6 6 5 5 6 6 5 6 6 6 5 5 6 6 7 6 6 6 5 5 5 5 5 5 5 5 4 4 3 3 3 3 3 3 3 3 3 3 3 3 4 4 3 3 3 3 3 3 3 3 3 3 3 4 5 5
9 9 9 9 8 8 8 7 7 6 6 5 5 6 7 6 7 7 7 6 6 6 6 5 6 6 6 6 6 6 6 6 5 5 5 5 5 5 5 5 4 3 3 2 2 3 3 3 3 4 4 4 4 4 5 5 4 4 4 4 4 3 3 3 3 3 4 6 6
9 9 9 9 9 9 8 8 7 7 6 6 6 6 7 7 7 7 6 6 6 6 6 5 6 7 7 7 6 6 5 5 5 5 5 5 5 5 5 5 4 3 3 2 3 3 3 3 3 4 4 4 4 5 5 5 4 4 4 4 4 4 3 4 4 4 5 6 6
10 10 10 10 10 9 9 8 8 7 7 6 7 7 7 6 6 6 6 5 5 6 6 6 7 7 7 7 6 6 5 5 5 5 5 5 5 5 5 4 4 4 3 3 3 3 4 3 4 5 5 6 6 6 5 5 5 5 4 4 4 4 4 4 4 5 5 5 6
11 11 11 10 11 10 10 9 8 7 7 7 7 7 7 7 6 6 5 5 6 6 7 7 7 7 7 6 6 6 6 5 5 5 5 5 5 5 5 4 4 4 3 3 3 3 3 4 5 6 6 6 7 6 6 5 5 5 5 4 4 4 5 5 4 4 4 5 5
12 11 11 11 11 11 10 9 8 7 7 8 7 7 7 7 6 6 5 6 7 7 7 7 7 7 7 6 6 6 6 6 6 6 6 6 6 5 5 5 5 4 4 3 3 3 4 4 5 6 6 6 6 5 5 5 5 5 5 5 5 4 4 5 5 5 4 5 5
12 11 11 11 11 11 10 9 8 8 8 8 8 7 6 6 6 6 6 7 7 6 6 7 7 6 6 6 6 6 6 6 6 6 6 6 6 6 6 5 5 5 4 4 4 4 4 4 5 5 6 5 5 5 5 5 5 5 5 5 5 4 4 4 5 5 5 5 4
11 11 11 11 11 10 9 9 8 8 8 9 8 7 6 6 6 6 6 6 6 6 6 6 6 6 6 6 6 6 6 6 6 6 6 6 6 6 6 5 5 5 4 4 4 4 5 5 5 5 5 5 5 5 5 5 5 5 5 5 5 4 4 4 4 4 5 4 4
11 11 11 11 11 10 9 8 7 7 8 9 8 7 7 6 6 6 6 6 6 6 6 6 5 5 6 6 6 7 7 7 7 7 6 6 6 6 6 5 5 5 4 4 4 5 5 5 5 5 5 5 5 5 5 5 5 5 5 5 5 4 4 4 4 4 4 4 4
12 12 11 11 10 9 8 8 6 7 8 8 8 8 7 6 6 6 6 6 6 6 6 6 6 6 6 6 6 7 7 7 7 7 7 6 6 6 6 5 5 5 4 4 4 5 5 4 4 4 4 5 4 5 5 5 5 5 5 5 4 4 4 4 4 4 4 4 3
12 12 11 11 10 10 9 8 7 7 7 8 8 8 7 7 6 6 6 6 5 5 6 6 6 6 6 6 6 6 6 6 7 7 6 6 6 6 6 5 5 5 5 4 4 5 5 4 4 4 4 4 4 5 5 5 5 5 5 5 4 4 4 4 4 3 3 3 3
12 12 12 11 11 10 9 9 8 7 8 9 8 8 7 7 7 6 6 6 5 6 6 6 6 6 7 7 7 6 6 6 6 6 6 6 6 6 5 5 5 5 4 4 4 5 5 5 4 4 4 4 4 4 5 5 5 5 5 5 5 4 4 4 4 3 3 3 3
12 12 12 12 11 10 9 9 8 8 8 9 8 8 7 7 7 7 6 6 6 6 6 6 6 6 7 7 7 6 6 6 6 6 6 6 6 6 5 5 5 4 4 4 4 4 5 5 5 5 4 4 4 4 5 5 5 5 5 5 5 5 5 4 4 3 3 3 3
13 12 12 12 11 11 10 9 9 8 8 8 8 8 8 8 7 7 7 6 6 6 6 6 6 7 7 8 8 7 6 6 6 6 6 6 6 6 5 5 5 5 4 4 4 4 4 4 4 4 5 4 4 4 5 5 5 5 5 4 4 5 5 5 4 3 3 2 3
13 13 12 12 11 11 10 9 9 8 8 8 8 8 8 8 7 7 7 6 6 6 6 7 7 7 7 8 8 7 7 6 6 6 6 6 6 6 6 5 5 5 4 4 4 4 4 4 4 4 4 4 4 4 4 4 5 5 5 4 4 5 5 5 5 4 3 3 3
13 12 12 12 12 11 10 10 9 9 8 8 8 8 8 8 7 7 7 6 6 7 7 7 7 8 8 8 8 8 7 6 6 7 6 6 6 6 6 5 5 4 4 3 3 4 3 3 3 3 3 4 4 4 4 4 4 4 5 5 5 5 5 5 5 4 3 3 3
13 12 12 12 12 11 11 10 10 9 9 8 8 8 8 8 7 7 7 6 6 7 7 7 7 7 8 8 8 8 7 7 7 7 7 7 7 6 6 5 5 5 4 4 4 4 4 3 3 3 3 3 4 4 4 4 4 4 4 6 6 5 5 5 5 4 4 3 4
14 13 12 11 12 12 11 11 10 10 9 9 9 9 8 8 8 7 7 7 6 6 6 6 6 6 7 7 8 8 8 8 8 8 8 8 7 7 7 6 6 5 4 3 2 1 1 3 3 3 3 3 4 4 4 4 4 4 4 5 6 6 5 6 5 4 4 4 4
14 13 12 12 13 13 12 11 10 10 9 9 9 9 9 9 8 7 7 7 6 6 6 6 6 6 6 7 7 8 9 9 9 9 9 8 8 7 7 6 5 4 3 4 6 6 5 2 1 2 3 3 3 4 4 4 4 4 4 4 5 5 6 7 6 5 4 4 3
15 14 14 13 14 14 13 12 11 10 9 9 9 9 9 9 8 8 7 7 7 7 6 6 6 5 6 7 7 8 8 9 9 9 9 9 9 8 7 5 4 4 4 7 7 6 6 6 5 3 1 3 3 3 3 4 4 4 4 4 4 4 5 6 6 6 6 5 4
15 15 15 14 15 15 14 13 12 10 10 9 9 9 9 9 8 8 8 7 7 7 6 6 6 6 5 6 8 8 8 8 9 9 9 9 9 8 7 6 5 5 6 8 7 6 5 5 5 5 4 2 2 2 2 3 4 4 4 4 4 3 3 4 4 5 5 5 4
16 16 16 15 15 15 15 14 13 12 11 10 9 9 9 9 9 9 9 8 7 7 6 6 6 6 5 6 7 8 9 9 9 9 9 9 8 8 7 5 5 7 8 9 8 7 5 3 3 4 4 2 1 2 2 2 3 3 3 3 3 3 3 2 3 3 3 4 3
17 16 15 15 15 15 15 15 14 13 12 11 10 9 9 10 10 10 9 9 8 8 7 6 6 6 6 7 8 8 9 9 9 8 8 9 8 7 6 6 7 9 10 10 9 7 6 4 3 3 4 5 2 1 2 2 2 2 2 2 2 2 2 2 2 2 2 2 2
16 15 15 15 14 14 14 14 14 13 12 11 10 10 10 10 11 11 10 10 9 9 8 7 7 7 7 8 8 8 8 8 8 8 8 9 8 7 7 7 8 10 11 10 9 8 7 5 3 2 3 5 3 1 1 2 2 2 2 2 2 3 3 3 3 2 2 1 2
15 15 15 14 14 13 13 13 13 13 12 11 11 11 11 11 11 11 11 10 10 9 8 8 8 9 9 9 9 9 9 8 8 8 8 9 8 8 8 8 9 10 10 10 9 8 7 6 4 2 1 4 3 2 1 1 2 2 2 3 3 3 3 3 3 3 2 2 1
15 15 15 14 13 13 12 12 12 12 12 12 12 12 12 12 12 11 11 11 10 10 9 9 10 10 10 10 9 9 9 9 9 8 8 8 8 8 8 9 9 10 10 11 10 9 8 6 5 2 1 3 2 1 1 2 2 2 3 4 4 3 3 3 3 3 3 3 2
14 14 14 14 13 13 12 12 12 12 12 12 12 12 12 12 11 11 11 10 10 10 10 10 10 10 10 10 10 10 9 9 9 9 9 9 9 9 9 8 9 9 10 11 10 9 8 7 5 3 2 4 3 3 3 3 2 3 3 4 4 4 4 4 4 4 4 3 3
15 14 14 14 14 13 13 12 12 12 12 12 12 12 12 11 11 11 10 10 9 9 10 10 10 10 10 10 10 10 9 8 9 9 9 9 9 9 9 8 8 9 10 11 10 9 8 7 6 4 4 6 4 3 4 4 3 3 4 5 5 5 5 4 4 4 4 4 3
15 15 14 14 14 13 13 13 12 12 12 12 12 12 12 11 11 11 10 10 9 9 9 9 9 9 9 9 9 9 9 9 9 9 9 9 9 9 9 8 9 10 11 11 10 9 8 7 6 5 5 5 4 3 3 4 4 4 5 5 6 5 5 5 5 4 4 4 4
15 15 15 15 14 14 14 13 13 12 12 13 13 13 12 11 11 11 10 10 10 10 10 10 10 9 9 9 9 9 9 10 9 9 9 8 8 9 9 9 10 11 12 11 10 9 8 7 6 6 6 6 3 3 3 3 4 4 5 5 6 6 6 5 5 5 5 5 5
15 15 15 15 15 14 14 13 13 13 13 13 13 13 13 12 11 11 11 10 10 11 10 10 10 10 10 10 9 9 10 10 10 9 9 8 8 8 9 10 11 12 12 11 10 9 8 7 6 6 6 5 3 3 3 3 3 4 5 5 5 6 6 5 5 5 6 6 6
14 14 15 15 15 14 14 13 13 13 13 13 13 13 13 12 11 11 11 10 10 11 11 10 10 10 10 10 10 10 10 10 10 9 9 8 8 8 9 10 11 11 11 11 10 9 8 6 5 6 6 3 3 3 3 3 3 4 4 4 5 5 5 4 4 5 6 7 7
14 14 14 14 14 14 13 13 12 12 12 12 12 12 12 12 11 11 11 10 10 10 10 10 10 10 10 10 10 10 10 10 10 9 9 8 8 8 8 10 10 11 11 11 10 9 8 6 4 4 5 3 2 3 3 3 3 4 4 4 4 4 4 4 4 5 6 8 8
14 14 14 14 14 14 14 13 12 12 12 12 12 12 12 12 11 11 11 10 10 10 10 10 11 10 10 10 10 10 10 10 9 9 8 8 7 7 7 8 10 10 11 11 10 9 8 6 4 4 5 3 2 2 2 3 3 3 3 3 3 3 3 3 3 4 5 7 8
14 14 15 14 15 14 14 14 13 12 11 11 11 11 11 11 11 11 11 10 10 10 9 9 11 11 10 9 9 10 10 10 10 9 8 8 8 7 7 8 9 10 11 11 10 9 8 6 4 3 4 2 2 2 2 3 3 3 3 3 3 3 3 3 3 3 3 4 6
Wind_Direction
152 153 152 150 148 145 141 134 136 140 145 148 148 149 149 149 142 140 139 140 134 127 123 119 118 120 125 131 129 125 120 113 106 101 95 89 85 83 83 83 84 87 93 100 107 108 104 101 98 95 90 83 81 78 73 54 43 50 57 54 49 48 51 58 53 47 41 34 26
154 152 148 144 144 141 137 136 140 145 148 145 145 146 146 145 141 141 142 141 133 128 125 123 126 132 138 141 140 136 131 125 122 119 113 105 99 96 92 87 82 77 78 87 94 97 98 97 95 93 94 94 90 89 88 86 71 68 68 64 54 45 44 50 50 47 44 37 27
153 152 151 152 152 149 146 146 150 151 149 142 142 142 142 141 140 140 141 139 136 133 131 129 133 139 144 147 146 142 137 134 132 129 125 119 117 114 111 101 97 90 81 78 82 89 94 98 93 92 90 90 86 85 87 90 86 80 78 75 68 58 50 49 43 41 39 36 27
152 153 155 157 156 154 152 151 152 150 146 139 140 140 139 137 138 139 139 139 140 139 137 135 138 143 148 151 149 145 140 136 136 133 129 126 124 122 119 117 112 105 98 87 90 96 101 105 102 98 90 82 78 76 78 83 85 85 85 83 78 67 59 53 44 37 34 33 29
152 154 155 155 154 151 149 149 149 146 142 138 142 142 141 139 141 143 145 147 148 145 142 139 141 146 153 157 153 148 143 141 143 140 136 131 129 126 121 114 103 97 95 95 100 105 109 112 102 90 79 72 65 62 65 76 88 90 88 86 76 66 59 57 50 44 37 32 27
151 150 148 146 146 144 142 143 143 141 139 141 148 149 148 149 153 155 156 154 148 142 139 138 142 152 160 161 156 153 150 150 151 147 140 137 133 128 121 113 106 105 109 111 116 119 119 117 100 85 75 70 65 58 56 66 82 89 90 88 78 69 62 58 55 52 47 40 29
146 144 141 138 138 138 138 140 139 138 140 145 154 156 155 156 159 159 156 151 146 142 142 145 157 164 165 162 158 156 155 154 152 149 145 141 135 129 125 119 117 117 120 126 136 135 128 120 106 96 88 77 70 58 49 49 69 82 87 85 77 70 63 57 53 54 53 49 37
141 139 137 134 134 135 137 139 140 141 144 150 156 158 158 157 159 158 155 152 149 148 150 159 165 167 164 159 157 155 154 152 152 149 146 140 135 132 128 124 122 121 122 133 134 129 124 123 110 105 101 93 79 65 55 49 60 72 80 80 78 76 73 69 58 56 56 55 46
140 138 137 135 136 137 138 140 143 146 147 149 154 157 157 155 157 159 159 156 152 152 155 161 163 163 161 155 154 153 151 151 150 146 141 137 136 135 134 130 129 131 134 134 127 122 119 112 101 97 95 93 88 79 70 61 64 69 74 78 74 72 72 71 65 61 60 60 55
143 142 141 140 140 140 141 143 145 146 147 148 152 153 153 153 161 164 163 155 154 156 158 157 159 160 159 154 153 151 150 148 146 142 139 138 140 141 141 138 139 141 143 139 130 121 112 101 96 95 96 96 96 94 90 82 76 70 67 68 65 62 60 61 62 62 63 64 62
144 144 144 143 143 143 144 146 146 146 147 147 150 152 155 161 167 167 162 157 160 159 157 154 158 159 157 154 153 151 149 148 145 145 145 146 148 149 148 144 144 145 144 140 127 113 102 98 102 105 106 107 106 105 102 97 91 85 79 77 72 61 50 45 46 52 59 64 63
144 144 144 143 144 145 147 148 146 147 149 147 151 157 162 167 168 166 163 166 163 157 153 153 157 158 157 154 153 150 148 147 147 148 151 152 153 152 151 147 146 146 146 143 128 114 107 107 113 115 117 118 117 114 111 109 105 103 103 101 92 76 57 40 36 36 42 52 58
144 144 144 144 145 147 148 147 146 149 152 151 156 162 167 167 165 165 167 170 161 154 150 154 158 159 158 154 153 151 149 149 151 153 154 154 154 153 151 148 148 150 151 147 132 123 119 118 120 122 123 124 121 120 120 119 113 110 109 106 97 85 70 54 42 36 35 42 50
144 145 145 146 147 148 148 148 149 152 155 156 160 164 166 163 163 167 170 169 157 151 151 156 160 161 158 156 154 151 150 150 153 154 155 154 154 153 152 149 151 154 154 149 137 131 128 126 124 123 122 121 123 126 126 122 115 111 108 105 98 89 76 64 54 46 40 40 46
146 146 147 147 149 150 150 152 154 157 159 159 161 162 162 161 164 168 170 163 157 156 157 161 161 159 157 156 154 152 151 152 154 155 155 154 155 154 153 152 156 158 158 153 145 138 133 130 129 128 128 128 131 130 124 116 112 110 109 105 101 93 82 68 62 56 50 45 45
148 148 148 150 152 153 154 156 157 160 161 160 159 160 160 161 164 167 167 164 164 164 165 164 161 158 156 157 156 154 153 152 154 155 156 155 155 154 154 155 159 162 163 161 153 145 138 136 136 137 137 137 135 127 120 115 114 115 115 112 106 97 85 73 68 64 59 53 46
151 150 151 153 155 157 158 160 160 162 162 159 159 160 162 162 162 164 167 170 172 171 168 167 163 160 158 158 158 157 156 154 155 156 157 155 154 154 155 157 162 167 169 169 159 149 141 138 141 142 142 138 134 128 125 127 125 124 121 115 108 97 86 78 73 70 66 63 52
154 154 154 156 158 160 161 162 161 162 162 159 161 163 164 161 160 161 166 175 176 173 169 168 166 163 161 160 160 159 157 157 157 156 156 153 152 152 154 158 165 171 174 172 160 150 143 142 145 147 144 139 138 135 134 134 131 127 122 116 110 100 91 84 79 74 69 63 57
157 156 157 158 160 161 162 162 162 163 163 160 162 163 162 159 158 160 164 174 175 173 171 169 169 167 164 162 160 158 157 157 157 155 152 149 149 150 153 158 167 174 175 170 159 149 145 145 148 150 150 147 148 145 141 138 135 132 128 122 116 108 101 93 87 82 75 66 63
159 158 158 159 160 160 161 161 162 163 163 161 162 161 159 156 156 158 162 169 171 172 173 173 172 170 166 164 160 157 155 154 154 152 149 146 147 149 153 159 168 174 174 167 155 147 143 144 148 151 153 153 153 149 144 141 139 136 130 122 115 110 107 101 95 89 84 78 71
161 159 159 159 158 158 159 160 161 163 163 160 160 159 156 154 154 156 160 164 168 172 175 177 175 171 168 165 160 157 153 150 151 149 147 146 147 150 154 162 169 172 171 163 151 145 145 148 153 155 156 153 151 148 146 144 141 137 131 122 114 108 104 100 96 91 86 82 79
162 160 158 157 156 156 156 158 160 161 161 159 159 158 156 152 151 154 159 163 169 175 179 179 175 173 170 166 161 156 151 147 148 147 146 146 147 151 156 163 165 165 163 158 150 149 151 156 160 161 159 152 149 148 149 150 145 139 132 122 112 104 99 98 96 91 84 75 77
162 160 157 155 154 154 155 158 159 159 158 156 158 158 156 151 151 154 159 165 172 179 182 180 176 173 170 166 160 155 151 147 147 146 146 147 149 154 159 162 163 166 168 169 163 161 162 166 168 168 164 156 154 157 157 154 148 139 130 121 115 112 110 107 103 98 90 78 73
162 159 157 154 154 155 156 157 156 156 156 158 160 159 156 151 151 155 160 167 174 181 184 182 176 171 168 164 160 156 152 149 147 146 147 149 152 157 161 164 168 171 170 155 113 104 152 177 173 172 172 169 166 163 158 150 142 134 127 123 123 125 126 121 114 106 97 86 81
162 160 157 156 156 157 156 155 153 155 158 161 161 159 155 152 152 155 161 168 176 182 184 180 175 170 167 164 161 157 153 149 147 147 149 151 155 159 164 168 168 161 135 88 52 33 13 353 300 185 177 180 175 163 150 141 133 128 126 124 129 135 137 134 128 121 111 99 97
164 162 160 160 159 157 154 151 151 155 160 163 163 159 156 153 152 155 160 169 177 182 183 178 174 171 169 166 161 158 154 150 149 149 151 153 157 162 166 166 157 133 103 86 71 54 33 11 350 326 243 187 177 163 150 138 132 131 132 133 138 143 145 143 138 133 127 122 124
166 165 165 164 161 157 152 148 150 156 162 166 166 162 157 154 153 156 162 171 179 181 180 177 172 170 170 168 162 159 155 151 150 152 154 156 160 164 165 159 143 117 101 98 94 83 63 32 360 337 314 214 175 159 147 135 135 138 140 140 140 141 141 140 133 129 127 128 132
169 169 168 167 163 157 152 148 151 157 163 166 167 164 159 155 154 157 163 172 177 180 179 177 172 173 174 169 164 162 159 154 153 154 156 158 162 164 162 150 125 108 104 110 110 106 96 73 22 349 332 300 203 165 150 141 144 147 146 139 135 132 128 121 109 108 111 116 116
170 170 169 168 163 157 152 150 153 156 159 162 164 164 161 159 158 160 164 171 176 180 182 178 176 176 175 168 165 164 161 157 155 155 157 159 161 159 152 135 118 111 112 118 120 118 113 104 68 5 332 310 273 195 161 161 157 153 144 131 124 117 111 100 89 83 86 93 101
169 169 168 167 162 157 153 152 153 153 154 156 161 164 164 163 162 163 166 170 179 183 184 179 178 177 173 166 165 164 163 160 158 156 156 157 157 153 145 133 122 119 121 126 126 124 121 115 98 43 337 314 286 233 175 167 164 149 134 118 109 102 95 90 85 77 68 65 85
167 167 166 163 159 155 153 152 151 151 152 155 161 165 167 167 166 166 168 172 181 184 183 180 178 175 171 165 166 166 164 160 158 156 155 155 154 150 143 132 125 124 126 131 130 128 125 122 115 94 337 305 274 241 174 156 150 129 112 100 94 92 90 90 89 82 70 59 66
166 164 162 159 155 153 152 151 151 151 153 156 161 166 168 169 168 168 170 174 180 182 181 179 177 174 170 166 167 166 164 160 159 157 155 154 153 148 141 132 129 128 129 134 132 130 128 127 125 129 215 278 254 218 161 147 131 113 103 96 90 86 84 85 88 83 76 66 64
165 162 159 155 153 151 151 152 153 154 155 158 163 166 168 169 167 168 170 173 178 180 180 177 175 173 171 167 167 165 162 159 157 156 155 155 153 148 142 134 128 127 130 135 133 131 130 131 136 152 201 245 229 194 156 142 131 118 109 106 102 95 87 81 78 76 72 63 63
164 161 157 154 152 151 152 154 155 156 157 160 164 166 168 167 166 167 169 172 176 178 178 176 175 173 171 168 166 162 159 156 156 156 157 157 155 151 144 135 127 127 132 136 135 134 134 137 147 169 204 231 223 187 151 141 135 122 112 108 102 96 90 85 82 78 73 64 61
165 161 158 154 152 152 152 154 156 158 160 162 164 166 167 167 166 166 167 170 173 176 176 175 174 172 170 166 162 158 155 155 156 157 158 159 157 153 147 138 130 131 135 139 137 138 140 145 159 184 207 218 206 170 140 131 124 118 113 111 107 104 101 98 94 88 79 67 55
165 162 158 155 153 152 153 156 158 160 163 165 165 165 166 166 165 165 166 168 173 175 175 173 172 170 167 163 159 156 155 156 156 157 158 161 160 156 150 141 135 136 139 143 142 142 146 154 172 196 212 217 190 151 130 122 119 119 119 118 115 113 110 107 100 89 77 65 52
165 162 158 154 153 153 154 156 159 162 165 166 165 165 164 163 163 164 166 169 174 175 174 172 171 168 165 160 157 157 157 157 156 156 158 162 163 159 152 144 139 140 143 147 146 147 152 162 185 206 216 209 173 146 136 131 129 128 126 121 118 118 118 119 110 96 82 69 55
164 160 156 152 151 152 154 157 160 164 166 167 166 164 163 162 163 164 167 171 174 174 172 171 170 167 162 158 156 156 157 156 156 156 159 163 165 161 154 145 141 142 145 149 149 151 155 167 196 224 235 210 162 147 142 139 138 136 132 127 123 124 126 128 118 106 95 83 69
159 157 153 150 149 150 153 157 161 164 167 167 166 164 163 162 163 164 166 172 174 172 170 170 167 163 159 156 154 154 155 155 155 156 159 163 163 160 154 147 142 141 144 148 151 152 155 164 195 236 250 225 165 148 145 141 140 137 134 131 128 128 129 127 122 115 108 104 96
154 152 150 148 149 150 154 158 162 165 167 167 165 164 163 163 162 162 165 172 173 171 169 168 164 159 155 154 153 153 153 153 154 156 157 157 154 154 153 147 142 140 142 147 151 152 153 159 184 230 248 228 170 151 148 142 139 137 136 134 133 132 130 128 123 120 119 120 117
150 151 151 151 152 153 155 158 161 164 166 167 165 163 162 161 160 162 165 172 171 169 166 164 160 157 154 154 154 153 152 153 152 151 151 149 149 153 155 150 144 142 143 147 150 152 153 157 174 221 252 249 180 156 151 146 140 137 134 129 129 129 129 127 124 122 124 127 124